Simultaneous Nadir Overpasses (SNOs) Predictions

Prediction of SNOs between NOAA-15 and METOP-C Satellite Orbit:

Table of predicted SNOs for the next 14.0 days since TLE Epoch: 8/29/2020
Index Date (NOAA-15) Time (NOAA-15) Lat,Lon (NOAA-15) SZA (NOAA-15 ) Date (METOP-C) Time (METOP-C) Lat,Lon (METOP-C) SZA (METOP-C ) Distance(km) Time Diff (sec)
1 09/11/2020 04:40:56 80.96, 145.43 78.34 09/11/2020 04:39:44 80.95, 145.55 78.31 2.75 72
2 09/11/2020 05:31:31 -80.96, -47.18 101.64 09/11/2020 05:30:25 -80.95, -47.08 101.67 2.17 66
3 09/11/2020 06:21:58 80.96, 120.32 78.38 09/11/2020 06:21:05 80.96, 120.40 78.37 1.46 53
4 09/11/2020 07:12:33 -80.95, -72.28 101.61 09/11/2020 07:11:46 -80.96, -72.22 101.62 1.17 47
5 09/11/2020 08:03:00 80.95, 95.21 78.42 09/11/2020 08:02:26 80.97, 95.26 78.42 2.03 34
6 09/11/2020 08:53:36 -80.96, -97.75 101.59 09/11/2020 08:53:08 -80.95, -97.73 101.61 1.52 28
7 09/11/2020 09:44:03 80.96, 69.74 78.43 09/11/2020 09:43:48 80.96, 69.76 78.43 0.26 15
8 09/11/2020 10:34:38 -80.96,-122.86 101.56 09/11/2020 10:34:29 -80.96,-122.87 101.56 0.42 9
9 09/11/2020 11:25:05 80.95, 44.64 78.47 09/11/2020 11:25:09 80.97, 44.61 78.48 1.75 4
10 09/11/2020 12:15:41 -80.97,-148.33 101.54 09/11/2020 12:15:51 -80.95,-148.37 101.55 1.73 10
11 09/11/2020 13:06:08 80.96, 19.16 78.48 09/11/2020 13:06:31 80.96, 19.11 78.49 1.02 23
12 09/11/2020 13:56:42 -80.96,-173.43 101.51 09/11/2020 13:57:11 -80.96,-173.51 101.50 1.44 29
13 09/11/2020 14:47:09 80.95, -5.94 78.52 09/11/2020 14:47:51 80.97, -6.03 78.54 2.24 42
14 09/11/2020 15:37:45 -80.97, 161.10 101.49 09/11/2020 15:38:33 -80.95, 160.98 101.49 2.60 48
15 09/11/2020 16:28:12 80.96, -31.41 78.53 09/11/2020 16:29:13 80.96, -31.54 78.54 2.24 61
